Location: Santa Fe
(35.6870°N, 105.9370°W)
Time: 05:26:12
(UTC-06:00)

Amateur Radio Satellites - All Passes

Search period start: 25 May 2015 04:56
Search period end: 26 May 2015 04:56
Location: Santa Fe, 35.6870°N, 105.9370°W

Satellite Date Start Highest point End Downlink Frequencies (MHz)
Time Altitude Azimuth
SO-50 25 May 05:04:46 05:08:37 24° 311° (NW) 05:12:29 436.795
JAS-2 25 May 05:06:54 05:12:05 81° 285° (WNW) 05:17:26 435.910
VERMONT LUNAR 25 May 05:10:58 05:13:55 33° 357° (N) 05:16:52 437.305
PHONESAT 2.4 25 May 05:12:57 05:16:22 55° 344° (NNW) 05:19:47 2401.200-2431.200
ITAMSAT 1 25 May 05:14:34 05:16:04 11° 297° (WNW) 05:17:15 435.822/435.867
HORYU 2 25 May 05:18:10 05:22:24 44° 287° (WNW) 05:26:35 437.375
CUBESAT XI-V 25 May 05:42:15 05:45:23 19° 69° (ENE) 05:48:40 437.345
MOZHAYETS 4 25 May 05:45:52 05:49:48 27° 265° (W) 05:53:40
AIST 2 25 May 06:06:12 06:09:30 22° 248° (WSW) 06:12:39 435.215
STRAND 1 25 May 06:09:43 06:12:55 18° 66° (ENE) 06:16:18 437.568
AO-7 25 May 06:10:14 06:18:12 49° 294° (WNW) 06:26:05 29.400- 29.500
Cosmos 2491 25 May 06:11:05 06:18:22 29° 70° (ENE) 06:25:53 435.465 / 435.565
PRISM 25 May 06:23:30 06:26:37 22° 70° (ENE) 06:29:51 437.425
VERMONT LUNAR 25 May 06:48:23 06:51:29 46° 13° (NNE) 06:54:35 437.305
M-CUBED/EXP-1 PRIME 25 May 06:48:26 06:52:18 33° 69° (ENE) 06:55:58 437.505
PHONESAT 2.4 25 May 06:51:37 06:54:50 35° 1° (N) 06:58:04 2401.200-2431.200
AUBIESAT-1 25 May 06:58:31 07:02:28 37° 70° (ENE) 07:06:11 437.475
ISS 25 May 06:58:51 07:01:50 32° 35° (NE) 07:04:50 145.825
YUBILEINY 25 May 07:00:24 07:07:19 28° 85° (E) 07:14:31 435.215
CUTE-I 25 May 07:08:24 07:13:41 56° 100° (E) 07:18:57 437.470
CUBESAT XI-V 25 May 07:18:21 07:22:36 36° 263° (W) 07:26:50 437.345
Cubesat XI-IV 25 May 07:28:18 07:33:41 88° 99° (E) 07:39:05 437.490
RS-15 25 May 07:44:08 07:50:14 18° 102° (ESE) 07:57:11 29.354- 29.394
STRAND 1 25 May 07:46:51 07:51:46 49° 260° (W) 07:56:42 437.568
PRISM 25 May 07:58:38 08:02:00 24° 264° (W) 08:05:17 437.425
Cosmos 2491 25 May 08:07:10 08:15:43 55° 269° (W) 08:24:08 435.465 / 435.565
AIST 1 25 May 08:09:34 08:13:45 44° 79° (E) 08:17:58
BRITE-PL 25 May 08:23:20 08:28:12 30° 94° (E) 08:32:57 437.365/2234.400
M-CUBED/EXP-1 PRIME 25 May 08:24:04 08:27:10 18° 260° (W) 08:29:59 437.505
VERMONT LUNAR 25 May 08:25:39 08:28:41 39° 208° (SSW) 08:31:41 437.305
PHONESAT 2.4 25 May 08:29:49 08:33:16 66° 18° (NNE) 08:36:43 2401.200-2431.200
AUBIESAT-1 25 May 08:34:34 08:37:18 16° 261° (W) 08:39:45 437.475
ISS 25 May 08:35:38 08:38:07 20° 230° (SW) 08:40:33 145.825
GOMX 1 25 May 08:36:31 08:40:46 24° 92° (E) 08:44:58 467.674
CUTE-I 25 May 08:49:54 08:53:21 17° 294° (WNW) 08:56:35 437.470
HO-68 25 May 08:53:17 08:59:14 29° 95° (E) 09:05:20 435.675
YUBILEINY 25 May 08:55:08 09:03:44 55° 282° (WNW) 09:12:15 435.215
Cubesat XI-IV 25 May 09:11:47 09:13:09 11° 297° (WNW) 09:14:08 437.490
Cosmos 2504 25 May 09:29:37 09:35:56 25° 87° (E) 09:42:16 435.465 / 435.565
CANX-2 25 May 09:29:39 09:33:47 56° 99° (E) 09:37:55 2200.000
CUTE 1.7 + AOD 2 25 May 09:33:30 09:37:39 55° 99° (E) 09:41:47 437.475
Oscar 11 25 May 09:35:42 09:37:42 13° 91° (E) 09:39:56 145.826/435.025
TIGRISAT 25 May 09:37:40 09:39:04 11° 66° (ENE) 09:40:44 435.000
CINEMA 3 25 May 09:38:57 09:43:04 30° 95° (E) 09:47:04 145.822/145.860
DOVE 4 25 May 09:46:07 09:51:16 81° 100° (E) 09:56:08 437.250
PCSat 25 May 09:48:08 09:51:28 17° 48° (NE) 09:54:59 145.827
AIST 1 25 May 09:49:02 09:51:03 13° 273° (W) 09:52:49
RS-15 25 May 09:50:24 10:01:18 89° 119° (ESE) 10:12:29 29.354- 29.394
UNISAT 6 25 May 09:55:18 09:58:30 19° 69° (ENE) 10:01:49 437.425
UWE-3 25 May 09:59:09 10:02:05 18° 92° (E) 10:05:07 435.000/436.395/437.385
SEEDS 25 May 09:59:09 10:03:21 86° 284° (WNW) 10:07:31 437.485
BRITE-PL 25 May 10:01:38 10:06:40 32° 290° (WNW) 10:11:25 437.365/2234.400
PHONESAT 2.4 25 May 10:08:16 10:11:13 26° 213° (SSW) 10:14:09 2401.200-2431.200
GOMX 1 25 May 10:14:03 10:18:59 36° 289° (WNW) 10:23:36 467.674
FUNcube-1 25 May 10:14:13 10:17:22 20° 93° (E) 10:20:34 145.935
COMPASS 1 25 May 10:15:34 10:19:41 69° 284° (WNW) 10:23:48 437.405
QB50P1 25 May 10:21:24 10:23:38 14° 68° (ENE) 10:26:04 145.935-145.965
POLYITAN 1 25 May 10:22:09 10:24:32 15° 68° (ENE) 10:27:07 437.675
AAUSAT CUBESAT 2 25 May 10:29:26 10:33:29 54° 285° (WNW) 10:37:29 437.432
ANTELSAT 25 May 10:37:01 10:41:36 53° 74° (ENE) 10:46:10 437.575/2403.000
HO-68 25 May 10:40:23 10:47:11 47° 291° (WNW) 10:53:54 435.675
CUBEBUG 2 25 May 10:43:03 10:47:32 79° 101° (ESE) 10:51:50 437.445
NANOSAT C BR1 25 May 10:51:47 10:55:32 32° 72° (ENE) 10:59:22 145.865
50 SAT 25 May 10:52:11 10:53:34 12° 91° (E) 10:55:09 437.505
ZACube-1 25 May 10:53:04 10:57:22 62° 100° (E) 11:01:33 437.345
QB50P2 25 May 10:58:09 11:02:07 39° 73° (ENE) 11:06:09 145.880/145.840
UKube-1 25 May 10:59:11 11:02:57 29° 96° (E) 11:06:47 .
HUMSAT D 25 May 11:02:54 11:06:40 33° 97° (E) 11:10:24 437.325/437.525
DX 1 25 May 11:04:54 11:08:59 37° 98° (E) 11:13:05 434.975-435.025
CANX-2 25 May 11:08:11 11:09:17 11° 293° (WNW) 11:10:08 2200.000
DELFI C3 25 May 11:09:20 11:13:17 57° 284° (WNW) 11:17:12 145.870
ESTCUBE 1 25 May 11:09:29 11:10:43 11° 90° (E) 11:12:15 437.505/2401.250
Oscar 11 25 May 11:10:04 11:14:09 43° 286° (WNW) 11:18:13 145.826/435.025
TIGRISAT 25 May 11:10:39 11:15:19 67° 259° (W) 11:19:59 435.000
POPSAT HIP 1 25 May 11:10:41 11:14:50 54° 75° (ENE) 11:19:04 437.405
CUTE 1.7 + AOD 2 25 May 11:12:00 11:13:08 11° 293° (WNW) 11:14:02 437.475
VELOX 1 25 May 11:12:14 11:15:38 22° 94° (E) 11:19:09 145.980
DUCHIFAT 1 25 May 11:14:10 11:18:20 58° 75° (ENE) 11:22:33 145.980
CINEMA 3 25 May 11:16:22 11:20:07 23° 291° (WNW) 11:23:37 145.822/145.860
CUBEBUG 1 25 May 11:17:26 11:18:58 12° 90° (E) 11:20:45 437.445
Cosmos 2504 25 May 11:20:36 11:28:57 58° 280° (W) 11:36:44 435.465 / 435.565
DOVE 4 25 May 11:27:03 11:28:18 11° 297° (WNW) 11:29:14 437.250
PCSat 25 May 11:30:04 11:35:28 68° 246° (WSW) 11:40:49 145.827
UNISAT 6 25 May 11:30:36 11:35:01 38° 262° (W) 11:39:23 437.425
UWE-3 25 May 11:34:49 11:38:45 32° 288° (WNW) 11:42:32 435.000/436.395/437.385
AISAT 25 May 11:42:27 11:46:50 51° 100° (E) 11:51:12 437.250
BUGSAT 1 25 May 11:45:41 11:49:48 86° 257° (WSW) 11:54:01 437.445
FUNcube-1 25 May 11:50:01 11:53:44 28° 289° (WNW) 11:57:19 145.935
QB50P1 25 May 11:55:06 11:59:10 42° 261° (W) 12:03:15 145.935-145.965
POLYITAN 1 25 May 11:56:04 12:00:08 41° 262° (W) 12:04:13 437.675
SO-50 25 May 11:58:25 12:01:50 19° 46° (NE) 12:05:23 436.795
JUGNU 25 May 12:00:44 12:03:54 15° 173° (S) 12:07:05 437.505
RS-15 25 May 12:06:29 12:15:28 27° 324° (NW) 12:24:22 29.354- 29.394
ANTELSAT 25 May 12:16:26 12:18:44 13° 270° (W) 12:20:45 437.575/2403.000
50 SAT 25 May 12:24:54 12:28:31 38° 286° (WNW) 12:32:05 437.505
NANOSAT C BR1 25 May 12:28:27 12:31:28 18° 267° (W) 12:34:22 145.865
CUSAT 1 25 May 12:31:19 12:36:54 27° 85° (E) 12:43:27 437.405
ZACube-1 25 May 12:32:50 12:33:12 10° 294° (WNW) 12:33:19 437.345
TISAT 1 25 May 12:32:59 12:35:34 16° 92° (E) 12:38:19 437.305
UKube-1 25 May 12:35:38 12:38:57 21° 291° (WNW) 12:42:08 .
QB50P2 25 May 12:35:41 12:38:14 15° 269° (W) 12:40:34 145.880/145.840
HUMSAT D 25 May 12:39:27 12:42:11 17° 291° (WNW) 12:44:43 437.325/437.525
DX 1 25 May 12:42:03 12:44:58 17° 292° (WNW) 12:47:44 434.975-435.025
ESTCUBE 1 25 May 12:43:33 12:48:00 57° 286° (WNW) 12:52:27 437.505/2401.250
VELOX 1 25 May 12:48:19 12:52:13 29° 289° (WNW) 12:56:03 145.980
POPSAT HIP 1 25 May 12:50:04 12:51:07 11° 271° (W) 12:51:52 437.405
CUBEBUG 1 25 May 12:51:22 12:55:42 52° 286° (WNW) 13:00:00 437.445
Oscar 19 25 May 12:58:31 13:02:50 28° 70° (ENE) 13:07:16 437.125/150
ITAMSAT 1 25 May 13:13:01 13:13:17 10° 63° (ENE) 13:13:56 435.822/435.867
SRMSAT 25 May 13:14:54 13:17:34 13° 170° (S) 13:20:19 437.500
AISAT 25 May 13:20:43 13:23:01 14° 293° (WNW) 13:25:06 437.250
GONETS M04 25 May 13:23:16 13:31:44 55° 91° (E) 13:40:17
DANDE 25 May 13:29:08 13:35:35 57° 92° (E) 13:43:35 436.750
SPROUT 25 May 13:37:05 13:41:22 58° 285° (WNW) 13:45:37 437.525
Gurwin Techsat 1B 25 May 13:37:08 13:40:32 18° 66° (ENE) 13:44:09 435.225
SO-50 25 May 13:37:56 13:42:47 54° 244° (WSW) 13:47:31 436.795
JUGNU 25 May 13:48:38 13:52:11 16° 183° (S) 13:55:42 437.505
Cosmos 2499 25 May 14:06:17 14:10:11 15° 84° (E) 14:14:29 435.465 / 435.565
TISAT 1 25 May 14:07:35 14:11:30 35° 287° (WNW) 14:15:22 437.305
ITUPSAT 1 25 May 14:09:16 14:13:26 30° 96° (E) 14:17:39 437.325
CUSAT 1 25 May 14:12:11 14:19:02 56° 284° (WNW) 14:27:04 437.405
BEESAT 25 May 14:17:55 14:22:20 37° 98° (E) 14:26:46 436.000
SWISSCUBE 25 May 14:25:57 14:30:36 51° 100° (E) 14:35:16 437.505
RS-15 25 May 14:29:04 14:33:39 13° 359° (N) 14:38:17 29.354- 29.394
Oscar 19 25 May 14:37:32 14:42:07 30° 264° (W) 14:46:39 437.125/150
ITAMSAT 1 25 May 14:46:59 14:52:10 87° 262° (W) 14:57:22 435.822/435.867
KKS-1 25 May 14:51:05 14:53:05 13° 91° (E) 14:55:19 437.445
SRMSAT 25 May 15:02:23 15:06:00 17° 180° (S) 15:09:38 437.500
O/OREOS (USA 219) 25 May 15:04:12 15:05:51 12° 100° (E) 15:07:46 437.305
DANDE 25 May 15:13:38 15:19:31 27° 295° (WNW) 15:26:02 436.750
AO-7 25 May 15:13:54 15:21:10 37° 64° (ENE) 15:28:37 29.400- 29.500
Gurwin Techsat 1B 25 May 15:15:01 15:20:10 51° 260° (W) 15:25:20 435.225
JAS-2 25 May 15:15:36 15:21:30 33° 71° (ENE) 15:26:56 435.910
GONETS M04 25 May 15:21:29 15:29:03 29° 290° (WNW) 15:36:23
JUGNU 25 May 15:38:34 15:40:26 11° 192° (SSW) 15:42:13 437.505
ITUPSAT 1 25 May 15:47:18 15:51:13 25° 291° (WNW) 15:55:01 437.325
Cosmos 2499 25 May 15:54:19 16:02:40 85° 277° (W) 16:10:23 435.465 / 435.565
BEESAT 25 May 15:56:27 15:59:57 20° 292° (WNW) 16:03:17 436.000
STARS 25 May 15:57:35 16:01:52 47° 99° (E) 16:06:07 437.465
SWISSCUBE 25 May 16:05:17 16:08:05 15° 293° (WNW) 16:10:42 437.505
HORYU 2 25 May 16:13:03 16:17:32 71° 258° (WSW) 16:22:01 437.375
KKS-1 25 May 16:25:43 16:30:03 47° 286° (WNW) 16:34:19 437.445
O/OREOS (USA 219) 25 May 16:40:28 16:44:52 51° 293° (WNW) 16:49:17 437.305
RS-15 25 May 16:43:21 16:52:08 25° 34° (NE) 17:01:35 29.354- 29.394
SRMSAT 25 May 16:51:39 16:54:26 13° 190° (S) 16:57:09 437.500
JAS-2 25 May 17:00:09 17:06:32 37° 262° (W) 17:12:12 435.910
AO-7 25 May 17:05:56 17:13:50 46° 260° (W) 17:21:41 29.400- 29.500
Cubesat XI-IV 25 May 17:11:16 17:13:14 12° 64° (ENE) 17:15:32 437.490
STARS 25 May 17:35:33 17:37:57 14° 293° (WNW) 17:40:08 437.465
MOZHAYETS 4 25 May 17:43:00 17:47:35 87° 102° (ESE) 17:52:09
Cosmos 2499 25 May 17:53:05 17:57:00 13° 296° (WNW) 18:00:12 435.465 / 435.565
BEESAT 3 25 May 17:55:57 17:59:24 27° 113° (ESE) 18:02:55 437.485
AIST 2 25 May 18:24:42 18:26:17 12° 109° (ESE) 18:28:06 435.215
CUTE-I 25 May 18:27:23 18:32:37 69° 75° (ENE) 18:37:56 437.470
BEESAT 2 25 May 18:41:54 18:45:59 78° 119° (ESE) 18:50:08 435.950
Cubesat XI-IV 25 May 18:47:28 18:52:46 76° 257° (WSW) 18:58:07 437.490
RS-15 25 May 18:55:05 19:06:50 80° 59° (ENE) 19:19:03 29.354- 29.394
Cosmos 2491 25 May 19:08:27 19:16:08 37° 88° (E) 19:24:03 435.465 / 435.565
YUBILEINY 25 May 19:08:40 19:17:19 66° 80° (E) 19:25:57 435.215
CUBESAT XI-V 25 May 19:17:24 19:22:05 69° 101° (E) 19:26:47 437.345
HO-68 25 May 19:20:52 19:24:58 17° 60° (ENE) 19:29:25 435.675
BRITE-PL 25 May 19:31:18 19:35:15 24° 68° (ENE) 19:39:32 437.365/2234.400
BEESAT 3 25 May 19:34:03 19:37:22 23° 309° (NW) 19:40:39 437.485
GOMX 1 25 May 19:41:50 19:45:23 20° 67° (ENE) 19:49:15 467.674
PRISM 25 May 19:42:50 19:46:55 55° 100° (E) 19:51:00 437.425
STRAND 1 25 May 20:00:03 20:05:12 72° 102° (ESE) 20:10:20 437.568
AIST 2 25 May 20:00:18 20:04:27 52° 303° (WNW) 20:08:39 435.215
M-CUBED/EXP-1 PRIME 25 May 20:07:04 20:10:04 32° 103° (ESE) 20:13:06 437.505
CUTE-I 25 May 20:11:07 20:13:19 12° 271° (W) 20:15:10 437.470
AUBIESAT-1 25 May 20:16:33 20:19:38 37° 104° (ESE) 20:22:47 437.475
CANX-2 25 May 20:20:02 20:23:38 28° 72° (ENE) 20:27:18 2200.000
BEESAT 2 25 May 20:23:47 20:24:40 10° 316° (NW) 20:25:22 435.950
CUTE 1.7 + AOD 2 25 May 20:23:49 20:27:25 28° 72° (ENE) 20:31:04 437.475
AIST 1 25 May 20:36:20 20:39:59 29° 91° (E) 20:43:43
CINEMA 3 25 May 20:37:41 20:41:27 23° 69° (ENE) 20:45:24 145.822/145.860
DOVE 4 25 May 20:47:54 20:52:50 59° 74° (ENE) 20:58:02 437.250
SEEDS 25 May 20:48:14 20:52:14 43° 74° (ENE) 20:56:16 437.485
UWE-3 25 May 20:54:34 20:56:28 13° 67° (ENE) 20:58:39 435.000/436.395/437.385
CUBESAT XI-V 25 May 20:57:35 20:59:01 11° 294° (WNW) 21:00:10 437.345
COMPASS 1 25 May 21:03:39 21:07:44 53° 75° (ENE) 21:11:50 437.405
Cosmos 2491 25 May 21:04:38 21:12:54 43° 285° (WNW) 21:21:08 435.465 / 435.565
HO-68 25 May 21:04:44 21:11:56 85° 255° (WSW) 21:19:10 435.675
YUBILEINY 25 May 21:07:02 21:13:29 23° 276° (W) 21:19:33 435.215
FUNcube-1 25 May 21:08:13 21:10:19 13° 67° (ENE) 21:12:39 145.935
BRITE-PL 25 May 21:08:59 21:13:33 36° 265° (W) 21:18:24 437.365/2234.400
RS-15 25 May 21:09:17 21:18:24 25° 255° (WSW) 21:27:05 29.354- 29.394
AAUSAT CUBESAT 2 25 May 21:16:57 21:21:05 66° 76° (ENE) 21:25:13 437.432
Cosmos 2504 25 May 21:16:57 21:23:37 40° 76° (ENE) 21:30:22 435.465 / 435.565
GOMX 1 25 May 21:18:19 21:23:07 45° 263° (W) 21:28:14 467.674
PRISM 25 May 21:20:47 21:21:57 11° 293° (WNW) 21:22:53 437.425
CUBEBUG 2 25 May 21:37:46 21:42:18 47° 74° (ENE) 21:46:54 437.445
STRAND 1 25 May 21:41:37 21:43:52 13° 296° (WNW) 21:45:51 437.568
M-CUBED/EXP-1 PRIME 25 May 21:43:59 21:44:42 10° 296° (WNW) 21:45:14 437.505
ZACube-1 25 May 21:45:52 21:50:02 35° 73° (ENE) 21:54:15 437.345
UKube-1 25 May 21:52:02 21:54:55 18° 69° (ENE) 21:57:57 .
HUMSAT D 25 May 21:52:34 21:55:26 18° 70° (ENE) 21:58:27 437.325/437.525
DELFI C3 25 May 21:53:32 21:57:28 54° 76° (ENE) 22:01:26 145.870
CANX-2 25 May 21:56:18 21:59:36 21° 267° (W) 22:02:45 2200.000
DX 1 25 May 21:58:12 22:01:36 23° 70° (ENE) 22:05:05 434.975-435.025
CUTE 1.7 + AOD 2 25 May 22:00:04 22:03:21 21° 266° (W) 22:06:31 437.475
Oscar 11 25 May 22:01:25 22:05:45 83° 258° (WSW) 22:10:07 145.826/435.025
VELOX 1 25 May 22:08:14 22:10:32 15° 67° (ENE) 22:13:03 145.980
CINEMA 3 25 May 22:13:51 22:18:25 36° 264° (W) 22:23:02 145.822/145.860
AIST 1 25 May 22:14:44 22:17:43 18° 287° (WNW) 22:20:35
SEEDS 25 May 22:26:15 22:28:18 13° 269° (W) 22:30:07 437.485
UWE-3 25 May 22:27:55 22:32:33 60° 260° (W) 22:37:12 435.000/436.395/437.385
DOVE 4 25 May 22:28:19 22:31:05 14° 272° (W) 22:33:38 437.250
ANTELSAT 25 May 22:34:05 22:35:58 13° 90° (E) 22:38:05 437.575/2403.000
AISAT 25 May 22:37:35 22:41:30 32° 71° (ENE) 22:45:30 437.250
FUNcube-1 25 May 22:41:44 22:46:14 54° 261° (W) 22:50:44 145.935
COMPASS 1 25 May 22:43:09 22:43:48 10° 271° (W) 22:44:09 437.405
HO-68 25 May 22:58:04 23:00:48 12° 273° (W) 23:02:52 435.675
POPSAT HIP 1 25 May 23:01:22 23:02:25 11° 90° (E) 23:03:45 437.405
DUCHIFAT 1 25 May 23:04:05 23:05:28 12° 90° (E) 23:07:07 145.980
TIGRISAT 25 May 23:05:58 23:09:49 30° 96° (E) 23:13:37 435.000
50 SAT 25 May 23:06:02 23:10:02 74° 77° (ENE) 23:14:02 437.505
Cosmos 2504 25 May 23:10:43 23:16:49 30° 272° (W) 23:22:44 435.465 / 435.565
CUSAT 1 25 May 23:14:52 23:18:52 16° 59° (ENE) 23:22:44 437.405
CUBEBUG 2 25 May 23:16:22 23:19:17 15° 269° (W) 23:21:58 437.445
ZACube-1 25 May 23:23:10 23:26:30 19° 267° (W) 23:29:42 437.345
UNISAT 6 25 May 23:25:29 23:29:47 54° 100° (E) 23:34:00 437.425
UKube-1 25 May 23:26:54 23:30:51 33° 263° (W) 23:34:46 .
HUMSAT D 25 May 23:27:01 23:30:58 34° 263° (W) 23:34:53 437.325/437.525
BUGSAT 1 25 May 23:31:53 23:34:42 18° 93° (E) 23:37:39 437.445
DX 1 25 May 23:34:03 23:37:44 26° 264° (W) 23:41:23 434.975-435.025
ISS 25 May 23:35:44 23:38:51 46° 134° (SE) 23:42:00 145.825
GONETS M04 25 May 23:38:16 23:44:36 23° 67° (ENE) 23:51:16
ESTCUBE 1 25 May 23:40:01 23:44:30 89° 272° (W) 23:49:00 437.505/2401.250
VELOX 1 25 May 23:42:30 23:46:44 46° 261° (W) 23:51:01 145.980
QB50P1 25 May 23:43:08 23:47:05 36° 98° (E) 23:51:03 145.935-145.965
CUBEBUG 1 25 May 23:44:15 23:48:35 88° 80° (E) 23:53:00 437.445
POLYITAN 1 25 May 23:44:22 23:48:23 38° 98° (E) 23:52:22 437.675
ANTELSAT 26 May 00:08:54 00:13:06 44° 286° (WNW) 00:17:10 437.575/2403.000
NANOSAT C BR1 26 May 00:14:42 00:19:00 90° 26° (NNE) 00:23:16 145.865
AISAT 26 May 00:14:52 00:18:10 20° 267° (W) 00:21:21 437.250
DANDE 26 May 00:15:34 00:22:53 42° 71° (ENE) 00:28:48 436.750
QB50P2 26 May 00:21:48 00:26:05 71° 284° (WNW) 00:30:19 145.880/145.840
PCSat 26 May 00:26:42 00:30:52 24° 108° (ESE) 00:35:11 145.827
SPROUT 26 May 00:27:59 00:32:16 72° 76° (ENE) 00:36:36 437.525
POPSAT HIP 1 26 May 00:34:29 00:38:40 51° 286° (WNW) 00:42:48 437.405
DUCHIFAT 1 26 May 00:37:30 00:41:38 48° 286° (WNW) 00:45:43 145.980
TIGRISAT 26 May 00:43:10 00:46:24 20° 291° (WNW) 00:49:27 435.000
CUSAT 1 26 May 00:55:40 01:02:51 75° 265° (W) 01:08:19 437.405
TISAT 1 26 May 00:56:12 01:00:25 72° 259° (WSW) 01:04:41 437.305
VERMONT LUNAR 26 May 01:02:49 01:04:09 12° 144° (SE) 01:05:34 437.305
UNISAT 6 26 May 01:04:27 01:06:07 12° 294° (WNW) 01:07:33 437.425
BUGSAT 1 26 May 01:06:26 01:10:17 33° 288° (WNW) 01:14:03 437.445
ISS 26 May 01:13:07 01:15:27 18° 331° (NNW) 01:17:46 145.825
ITUPSAT 1 26 May 01:13:39 01:17:29 25° 70° (ENE) 01:21:24 437.325
Oscar 19 26 May 01:14:58 01:16:33 12° 89° (E) 01:18:29 437.125/150
O/OREOS (USA 219) 26 May 01:15:18 01:17:57 16° 57° (ENE) 01:20:47 437.305
QB50P1 26 May 01:19:55 01:22:41 16° 291° (WNW) 01:25:16 145.935-145.965
POLYITAN 1 26 May 01:21:22 01:24:00 16° 292° (WNW) 01:26:27 437.675
BEESAT 26 May 01:21:47 01:25:55 31° 71° (ENE) 01:30:08 436.000
SWISSCUBE 26 May 01:29:45 01:34:11 42° 73° (ENE) 01:38:40 437.505
GONETS M04 26 May 01:33:37 01:42:21 69° 266° (W) 01:50:57
Cosmos 2499 26 May 01:49:58 01:55:29 25° 71° (ENE) 02:01:16 435.465 / 435.565
DANDE 26 May 01:59:15 02:05:51 31° 274° (W) 02:11:08 436.750
PCSat 26 May 02:08:58 02:14:04 40° 303° (WNW) 02:19:10 145.827
VERMONT LUNAR 26 May 02:37:48 02:41:01 73° 155° (SSE) 02:44:13 437.305
ITUPSAT 1 26 May 02:51:09 02:55:17 28° 264° (W) 02:59:22 437.325
Oscar 19 26 May 02:51:21 02:56:29 68° 286° (WNW) 03:01:34 437.125/150
STARS 26 May 02:51:51 02:55:40 29° 71° (ENE) 02:59:33 437.465
PHONESAT 2.4 26 May 02:53:04 02:56:02 26° 148° (SSE) 02:59:01 2401.200-2431.200
O/OREOS (USA 219) 26 May 02:53:25 02:57:39 43° 254° (WSW) 03:01:52 437.305
BEESAT 26 May 03:00:01 03:03:49 23° 266° (W) 03:07:29 436.000
ITAMSAT 1 26 May 03:02:58 03:07:53 42° 98° (E) 03:12:51 435.822/435.867
BEESAT 2 26 May 03:04:32 03:07:35 20° 50° (NE) 03:10:41 435.950
SWISSCUBE 26 May 03:09:07 03:12:16 17° 268° (W) 03:15:14 437.505
KKS-1 26 May 03:20:32 03:25:01 77° 258° (WSW) 03:29:31 437.445
AO-7 26 May 03:22:22 03:24:11 11° 87° (E) 03:26:50 29.400- 29.500
Gurwin Techsat 1B 26 May 03:33:58 03:39:19 82° 103° (ESE) 03:44:38 435.225
Cosmos 2499 26 May 03:42:14 03:48:57 48° 269° (W) 03:55:44 435.465 / 435.565
SO-50 26 May 03:49:07 03:53:46 83° 299° (WNW) 03:58:36 436.795
BEESAT 3 26 May 03:54:24 03:58:29 88° 57° (ENE) 04:02:29 437.485
HORYU 2 26 May 04:07:43 04:11:27 27° 96° (E) 04:15:13 437.375
JAS-2 26 May 04:12:24 04:16:52 30° 96° (E) 04:21:34 435.910
VERMONT LUNAR 26 May 04:15:21 04:18:21 36° 352° (N) 04:21:22 437.305
AIST 2 26 May 04:24:49 04:28:47 39° 55° (NE) 04:32:43 435.215
STARS 26 May 04:28:41 04:32:09 21° 266° (W) 04:35:30 437.465
PHONESAT 2.4 26 May 04:30:32 04:34:00 65° 342° (NNW) 04:37:27 2401.200-2431.200
MOZHAYETS 4 26 May 04:41:53 04:46:22 57° 75° (ENE) 04:50:52
BEESAT 2 26 May 04:42:05 04:45:45 31° 247° (WSW) 04:49:19 435.950
ITAMSAT 1 26 May 04:43:13 04:47:08 21° 293° (WNW) 04:50:53 435.822/435.867
